FW6809 Weather Reports


Display with metric or nautical units.
time (UTC)temp
F
wind
direction
speed
MPH
gust
MPH
rain 1hr
in
rain 24hr
in
rain mn
in
humidity
%
barometer
mb
20260904224601 88 0 0.0 0.0 0.00 0.00 0.00 73 1017.0
20260904223051 89 0 0.0 0.0 0.00 0.00 0.00 68 1016.9
20260904221554 89 0 0.0 0.0 0.00 0.00 0.00 63 1016.8
20260904214554 90 0 0.0 3.0 0.00 0.00 0.00 63 1016.9
20260904213055 91 108 0.0 3.0 0.00 0.00 0.00 61 1016.8
20260904211601 92 0 0.0 5.0 0.00 0.00 0.00 61 1017.1
20260904210109 92 0 0.0 4.0 0.00 0.00 0.00 61 1017.2
20260904204605 91 0 0.0 3.0 0.00 0.00 0.00 61 1017.2
20260904203101 91 145 0.0 3.0 0.00 0.00 0.00 63 1017.4
20260904201604 91 0 0.0 4.0 0.00 0.00 0.00 63 1017.5
20260904200106 89 0 0.0 0.0 0.00 0.00 0.00 66 1017.7
20260904194609 91 174 0.0 4.0 0.00 0.00 0.00 63 1017.9
20260904193057 90 0 0.0 4.0 0.00 0.00 0.00 63 1018.1
20260904191554 91 117 0.0 4.0 0.00 0.00 0.00 62 1018.2
20260904190057 90 0 0.0 3.0 0.00 0.00 0.00 67 1018.5
20260904184601 92 220 0.0 5.0 0.00 0.00 0.00 64 1018.8
20260904183112 92 0 0.0 0.0 0.00 0.00 0.00 64 1019.2
20260904181554 89 0 0.0 0.0 0.00 0.00 0.00 68 1019.1
20260904174557 92 143 0.0 1.0 0.00 0.00 0.00 64 1019.5
20260904173104 90 0 0.0 3.0 0.00 0.00 0.00 69 1019.6
20260904171559 89 0 0.0 1.0 0.00 0.00 0.00 70 1019.9
20260904170058 90 0 0.0 3.0 0.00 0.00 0.00 70 1020.0
20260904164600 90 117 0.0 2.0 0.00 0.00 0.00 71 1020.1
20260904163108 89 0 0.0 2.0 0.00 0.00 0.00 70 1020.2
20260904161601 89 0 0.0 1.0 0.00 0.00 0.00 71 1020.4
20260904160106 88 138 0.0 1.0 0.00 0.00 0.00 71 1020.6
20260904154555 88 0 0.0 2.0 0.00 0.00 0.00 71 1020.5
20260904153108 89 0 0.0 0.0 0.00 0.00 0.00 71 1020.6
20260904151558 88 0 0.0 0.0 0.00 0.00 0.00 75 1020.7
20260904150106 86 0 0.0 0.0 0.00 0.00 0.00 77 1020.5
20260904144554 86 0 0.0 0.0 0.00 0.00 0.00 77 1020.4
20260904143102 87 0 0.0 0.0 0.00 0.00 0.00 75 1020.6
20260904141559 86 0 0.0 0.0 0.00 0.00 0.00 80 1020.6
20260904140106 85 0 0.0 0.0 0.00 0.00 0.00 78 1020.5
20260904134554 85 0 0.0 0.0 0.00 0.00 0.00 79 1020.3
20260904133104 85 0 0.0 0.0 0.00 0.00 0.00 81 1020.4
20260904131555 83 0 0.0 0.0 0.00 0.00 0.00 84 1020.5
20260904130104 81 0 0.0 0.0 0.00 0.00 0.00 88 1020.3
20260904124602 77 0 0.0 0.0 0.00 0.00 0.00 92 1020.4
20260904123057 73 0 0.0 0.0 0.00 0.00 0.00 97 1020.5
20260904121556 72 0 0.0 0.0 0.00 0.00 0.00 99 1020.3
20260904120108 70 0 0.0 0.0 0.00 0.00 0.00 100 1020.2
20260904114604 70 0 0.0 0.0 0.00 0.00 0.00 100 1020.1
20260904113057 70 0 0.0 0.0 0.00 0.00 0.00 99 1020.1
20260904111557 70 0 0.0 0.0 0.00 0.00 0.00 99 1019.8
20260904110059 70 0 0.0 0.0 0.00 0.00 0.00 99 1019.8
20260904104601 71 0 0.0 0.0 0.00 0.00 0.00 99 1019.7
20260904103056 71 0 0.0 0.0 0.00 0.00 0.00 99 1019.6
20260904101554 71 0 0.0 0.0 0.00 0.00 0.00 99 1019.5
20260904100101 71 0 0.0 0.0 0.00 0.00 0.00 99 1019.4
20260904094600 71 0 0.0 0.0 0.00 0.00 0.00 98 1019.2
20260904093055 72 0 0.0 0.0 0.00 0.00 0.00 98 1019.2
20260904091555 72 0 0.0 0.0 0.00 0.00 0.00 98 1019.0
20260904090059 72 0 0.0 2.0 0.00 0.00 0.00 98 1018.8
20260904084558 72 0 0.0 0.0 0.00 0.00 0.00 98 1018.9
20260904083101 72 0 0.0 0.0 0.00 0.00 0.00 98 1018.9
20260904081557 72 0 0.0 0.0 0.00 0.00 0.00 98 1018.8
20260904080100 73 0 0.0 0.0 0.00 0.00 0.00 97 1018.7
20260904074555 73 0 0.0 0.0 0.00 0.00 0.00 97 1018.7
20260904073056 73 0 0.0 0.0 0.00 0.00 0.00 97 1018.7
20260904071601 73 0 0.0 0.0 0.00 0.00 0.00 96 1018.7
20260904070059 73 0 0.0 0.0 0.00 0.00 0.00 97 1018.7
20260904064557 73 0 0.0 0.0 0.00 0.00 0.00 98 1018.6
20260904063053 73 0 0.0 0.0 0.00 0.00 0.00 98 1018.7
20260904061557 72 0 0.0 0.0 0.00 0.00 0.00 98 1018.9
20260904060057 72 0 0.0 0.0 0.00 0.00 0.00 99 1018.9
20260904054554 72 0 0.0 0.0 0.00 0.00 0.00 98 1019.1
20260904053050 72 0 0.0 0.0 0.00 0.00 0.00 98 1019.2
20260904051612 72 0 0.0 0.0 0.00 0.00 0.00 98 1019.4
20260904050056 72 0 0.0 0.0 0.00 0.00 0.00 98 1019.4
20260904044557 72 0 0.0 0.0 0.00 0.00 0.00 97 1019.4
20260904043105 73 0 0.0 0.0 0.00 0.00 0.00 97 1019.4
20260904041551 73 0 0.0 0.0 0.00 0.00 0.00 97 1019.5
20260904040056 73 0 0.0 0.0 0.00 0.00 0.00 96 1019.3
20260904034558 74 0 0.0 0.0 0.00 0.00 0.00 96 1019.4
20260904033056 74 0 0.0 0.0 0.00 0.00 0.00 96 1019.4
20260904031555 74 0 0.0 0.0 0.00 0.00 0.00 96 1019.5
20260904030108 74 0 0.0 0.0 0.00 0.00 0.00 96 1019.7
20260904024601 74 0 0.0 0.0 0.00 0.00 0.00 96 1019.6
20260904023055 74 0 0.0 0.0 0.00 0.00 0.00 96 1019.4
20260904021556 75 0 0.0 0.0 0.00 0.00 0.00 96 1019.4
20260904020101 75 0 0.0 0.0 0.00 0.00 0.00 95 1019.3
20260904014613 75 0 0.0 0.0 0.00 0.00 0.00 94 1019.3
20260904013058 76 0 0.0 0.0 0.00 0.00 0.00 94 1019.1
20260904011602 76 0 0.0 0.0 0.00 0.00 0.00 93 1019.0
20260904010057 77 0 0.0 0.0 0.00 0.00 0.00 92 1018.8
20260904004552 78 0 0.0 0.0 0.00 0.00 0.00 92 1018.7
20260904003055 79 0 0.0 0.0 0.00 0.00 0.00 92 1018.5
20260904001557 79 0 0.0 0.0 0.00 0.00 0.00 90 1018.3
20260904000100 80 0 0.0 0.0 0.00 0.00 0.00 90 1018.1
20260903234558 81 0 0.0 0.0 0.00 0.00 0.00 89 1018.3
20260903233056 83 0 0.0 0.0 0.00 0.00 0.00 86 1018.1
20260903231608 85 0 0.0 0.0 0.00 0.00 0.00 82 1018.0
20260903230100 87 0 0.0 0.0 0.00 0.00 0.00 78 1017.9